Montgomery, NY

7:25 AM EDT on September 20, 2017 (GMT -0400)
Orange County

Weather History for KMGJ - April, 2014

Change the Weather History Date:

Monday, April 21, 2014

  Actual Average (KSWF) Record (KSWF)
Temperature  
Mean Temperature 52 °F -  
Max Temperature 73 °F 59 °F 88 °F (1976)
Min Temperature 30 °F 37 °F 26 °F (1975)
Degree Days  
Heating Degree Days 14    
Growing Degree Days 2 (Base 50)    
Moisture  
Dew Point 25 °F    
Average Humidity 48    
Maximum Humidity 89    
Minimum Humidity 11    
Precipitation  
Precipitation 0.00 in - - ()
Sea Level Pressure  
Sea Level Pressure 30.07 in    
Wind  
Wind Speed 3 mph (SSW)    
Max Wind Speed 13 mph    
Max Gust Speed -    
Visibility 10 miles    
Events Snow    
Averages and records for this station are not official NWS values.
T = Trace of Precipitation, MM = Missing Value Source: NWS Daily Summary

Daily Weather History Graph

Daily Weather History Graph

Search for Another Location

Airport or City:

Trip Planner

Search our weather history database for the weather conditions in past years. The results will help you decide how hot, cold, wet, or windy it might be!

Date:

Astronomy

Apr. 21, 2014 Rise Set
Actual Time 6:08 AM EDT 7:44 PM EDT
Civil Twilight 5:38 AM EDT 8:13 PM EDT
Nautical Twilight 5:03 AM EDT 8:48 PM EDT
Astronomical Twilight 4:26 AM EDT 9:26 PM EDT
Moon 1:13 AM EDT (4/21) 11:30 AM EDT (4/21)
Length of Visible Light 14h 34m
Length of Day
13h 35m
Waning Gibbous, 58% of the Moon is Illuminated
Apr 21
Waning Gibbous
Apr 22
Last Quarter
Apr 29
New
May 6
First Quarter
May 14
Full

Hourly Weather History & Observations

Time (EDT) Temp. Windchill Dew Point Humidity Pressure Visibility Wind Dir Wind Speed Gust Speed Precip Events Conditions
12:54 AM 37.0 °F - 28.9 °F 73% 30.30 in 10.0 mi Calm Calm - N/A   Clear
1:54 AM 35.1 °F - 28.9 °F 78% 30.27 in 10.0 mi Calm Calm - N/A   Clear
2:54 AM 33.1 °F - 30.0 °F 89% 30.26 in 10.0 mi Calm Calm - N/A   Clear
3:54 AM 33.1 °F - 28.9 °F 85% 30.24 in 10.0 mi Calm Calm - N/A   Clear
4:54 AM 30.9 °F - 28.0 °F 89% 30.23 in 9.0 mi Calm Calm - 0.00 in Snow Light Snow
5:54 AM 30.9 °F - 28.0 °F 89% 30.22 in 10.0 mi Calm Calm - 0.00 in   Clear
6:54 AM 32.0 °F - 28.9 °F 88% 30.23 in 10.0 mi Calm Calm - N/A   Clear
7:54 AM 39.0 °F 35.7 °F 30.9 °F 73% 30.22 in 10.0 mi SSW 4.6 mph - N/A   Clear
8:54 AM 46.9 °F - 30.0 °F 52% 30.19 in 10.0 mi South 5.8 mph - N/A   Clear
9:54 AM 52.0 °F - 21.9 °F 31% 30.17 in 10.0 mi South 8.1 mph - N/A   Clear
10:54 AM 57.0 °F - 21.0 °F 25% 30.14 in 10.0 mi South 8.1 mph - N/A   Clear
11:54 AM 60.1 °F - 19.0 °F 20% 30.11 in 10.0 mi Variable 3.5 mph - N/A   Clear
12:54 PM 64.9 °F - 14.0 °F 14% 30.06 in 10.0 mi SSW 8.1 mph - N/A   Clear
1:54 PM 68.0 °F - 14.0 °F 12% 30.02 in 10.0 mi WSW 12.7 mph - N/A   Clear
2:54 PM 70.0 °F - 12.0 °F 11% 29.98 in 10.0 mi SW 10.4 mph - N/A   Clear
3:54 PM 72.0 °F - 16.0 °F 12% 29.94 in 10.0 mi SSW 9.2 mph - N/A   Clear
4:54 PM 73.0 °F - 15.1 °F 11% 29.91 in 10.0 mi SW 11.5 mph - N/A   Clear
5:54 PM 70.0 °F - 19.9 °F 15% 29.89 in 10.0 mi South 9.2 mph - N/A   Clear
6:54 PM 66.9 °F - 21.9 °F 18% 29.87 in 10.0 mi SSW 8.1 mph - N/A   Clear
7:54 PM 62.1 °F - 27.0 °F 26% 29.88 in 10.0 mi South 8.1 mph - N/A   Clear
8:54 PM 57.0 °F - 32.0 °F 39% 29.88 in 10.0 mi SSW 5.8 mph - N/A   Clear
9:54 PM 51.1 °F - 37.0 °F 59% 29.88 in 10.0 mi Calm Calm - N/A   Clear
10:54 PM 46.9 °F - 37.0 °F 68% 29.86 in 10.0 mi Calm Calm - N/A   Clear
11:54 PM 46.0 °F - 37.0 °F 71% 29.85 in 10.0 mi Calm Calm - N/A   Clear